Вернуться в каталог

THORAD AGENA D DEB

АктивенSSO
NORAD 4766·DEBRIS·🇺🇸 United States

Запущен Apr 8, 1970 с Vandenberg Space Force Base

Loading…

Ближайшие Пролёты (ближайшие 24 часа)

TLE

СвежийSource: Space-Track

Эпоха: Sep 14, 2026, 09:48 UTC

1 04766U 70025DL  26257.40873417  .00000021  00000-0  97730-4 0  9996
2 04766 100.1470  53.2213 0009778 129.7925 259.6359 13.55960558788728

Отслеживайте THORAD AGENA D DEB в реальном времени с AllMySat

Download on the App Store